| time (UTC) | temp C | wind direction | speed KPH | gust KPH | rain 1hr cm | rain 24hr cm | rain mn cm | humidity % | barometer mb |
| 20260504081051 | 25 | 287 | 4.8 | 8.0 | 0.00 | 0.00 | 0.00 | 91 | 1011.0 |
| 20260504080951 | 25 | 287 | 4.8 | 8.0 | 0.00 | 0.00 | 0.00 | 91 | 1011.0 |
| 20260504045042 | 25 | 48 | 6.4 | 8.0 | 0.00 | 0.00 | 0.00 | 89 | 1012.0 |
| 20260504044942 | 25 | 48 | 6.4 | 8.0 | 0.00 | 0.00 | 0.00 | 89 | 1012.0 |
| 20260504043042 | 25 | 48 | 6.4 | 8.0 | 0.03 | 0.00 | 0.00 | 89 | 1013.0 |
| 20260504042941 | 25 | 48 | 6.4 | 8.0 | 0.03 | 0.00 | 0.00 | 89 | 1013.0 |
| 20260504041041 | 26 | 48 | 6.4 | 8.0 | 0.00 | 0.00 | 0.00 | 89 | 1013.0 |
| 20260504040940 | 26 | 48 | 6.4 | 8.0 | 0.00 | 0.00 | 0.00 | 89 | 1013.0 |
| 20260504035039 | 26 | 48 | 6.4 | 8.0 | 0.03 | 0.00 | 0.00 | 89 | 1012.0 |
| 20260504034939 | 26 | 48 | 6.4 | 8.0 | 0.03 | 0.00 | 0.00 | 89 | 1012.0 |
| 20260504033037 | 27 | 48 | 6.4 | 8.0 | 0.00 | 0.00 | 0.00 | 89 | 1012.0 |
| 20260504032937 | 27 | 48 | 6.4 | 8.0 | 0.00 | 0.00 | 0.00 | 89 | 1012.0 |
| 20260504031036 | 27 | 48 | 6.4 | 8.0 | 0.00 | 0.00 | 0.00 | 89 | 1013.0 |
| 20260504030936 | 27 | 48 | 6.4 | 8.0 | 0.00 | 0.00 | 0.00 | 89 | 1013.0 |
| 20260504025035 | 23 | 332 | 1.6 | 6.4 | 0.00 | 0.00 | 0.00 | 84 | 1012.0 |
| 20260504024935 | 23 | 332 | 1.6 | 6.4 | 0.00 | 0.00 | 0.00 | 84 | 1012.0 |
| 20260504023034 | 23 | 332 | 1.6 | 6.4 | 0.00 | 0.00 | 0.00 | 84 | 1012.0 |
| 20260504022934 | 23 | 332 | 1.6 | 6.4 | 0.00 | 0.00 | 0.00 | 84 | 1012.0 |
| 20260504021033 | 24 | 332 | 1.6 | 6.4 | 0.00 | 0.00 | 0.00 | 84 | 1012.0 |
| 20260504020933 | 24 | 332 | 1.6 | 6.4 | 0.00 | 0.00 | 0.00 | 84 | 1012.0 |
| 20260504015032 | 25 | 332 | 1.6 | 6.4 | 0.00 | 0.00 | 0.00 | 84 | 1011.0 |
| 20260504014932 | 25 | 332 | 1.6 | 6.4 | 0.00 | 0.00 | 0.00 | 84 | 1011.0 |
| 20260504013031 | 25 | 332 | 1.6 | 6.4 | 0.00 | 0.00 | 0.00 | 84 | 1011.0 |
| 20260504012930 | 25 | 332 | 1.6 | 6.4 | 0.00 | 0.00 | 0.00 | 84 | 1011.0 |
| 20260504011030 | 26 | 332 | 1.6 | 6.4 | 0.00 | 0.00 | 0.00 | 84 | 1011.0 |
| 20260504010929 | 26 | 332 | 1.6 | 6.4 | 0.00 | 0.00 | 0.00 | 84 | 1011.0 |
| 20260504005029 | 26 | 332 | 1.6 | 6.4 | 0.05 | 0.00 | 0.00 | 84 | 1011.0 |
| 20260504004929 | 26 | 332 | 1.6 | 6.4 | 0.05 | 0.00 | 0.00 | 84 | 1011.0 |
| 20260504003027 | 27 | 332 | 1.6 | 6.4 | 0.00 | 0.00 | 0.00 | 84 | 1011.0 |
| 20260504002927 | 27 | 332 | 1.6 | 6.4 | 0.00 | 0.00 | 0.00 | 84 | 1011.0 |
| 20260504001026 | 27 | 332 | 3.2 | 6.4 | 0.00 | 0.00 | 0.00 | 84 | 1010.0 |
| 20260504000926 | 27 | 332 | 3.2 | 6.4 | 0.00 | 0.00 | 0.00 | 84 | 1010.0 |
| 20260503235025 | 23 | 321 | 6.4 | 8.0 | 0.03 | 0.00 | 0.00 | 75 | 1010.0 |
| 20260503234925 | 23 | 321 | 6.4 | 8.0 | 0.03 | 0.00 | 0.00 | 75 | 1010.0 |
| 20260503233024 | 24 | 321 | 6.4 | 8.0 | 0.00 | 0.00 | 0.00 | 75 | 1010.0 |
| 20260503232924 | 24 | 321 | 6.4 | 8.0 | 0.00 | 0.00 | 0.00 | 75 | 1010.0 |
| 20260503231023 | 25 | 321 | 6.4 | 8.0 | 0.00 | 0.00 | 0.00 | 75 | 1010.0 |
| 20260503230923 | 25 | 321 | 6.4 | 8.0 | 0.00 | 0.00 | 0.00 | 75 | 1010.0 |
| 20260503225022 | 25 | 321 | 6.4 | 8.0 | 0.00 | 0.00 | 0.00 | 75 | 1009.0 |
| 20260503224922 | 25 | 321 | 6.4 | 8.0 | 0.00 | 0.00 | 0.00 | 75 | 1009.0 |
| 20260503223022 | 26 | 321 | 6.4 | 8.0 | 0.00 | 0.00 | 0.00 | 75 | 1009.0 |
| 20260503222921 | 26 | 321 | 6.4 | 8.0 | 0.00 | 0.00 | 0.00 | 75 | 1009.0 |
| 20260503221021 | 26 | 321 | 6.4 | 8.0 | 0.00 | 0.00 | 0.00 | 75 | 1009.0 |
| 20260503220920 | 26 | 321 | 6.4 | 8.0 | 0.00 | 0.00 | 0.00 | 75 | 1009.0 |
| 20260503215020 | 27 | 321 | 6.4 | 8.0 | 0.00 | 0.00 | 0.00 | 75 | 1009.0 |
| 20260503214919 | 27 | 321 | 6.4 | 8.0 | 0.00 | 0.00 | 0.00 | 75 | 1009.0 |
| 20260503213019 | 27 | 321 | 6.4 | 8.0 | 0.00 | 0.00 | 0.00 | 75 | 1009.0 |
| 20260503212919 | 27 | 321 | 6.4 | 8.0 | 0.00 | 0.00 | 0.00 | 75 | 1009.0 |
| 20260503211018 | 28 | 321 | 6.4 | 8.0 | 0.00 | 0.00 | 0.00 | 75 | 1009.0 |
| 20260503210918 | 28 | 321 | 6.4 | 8.0 | 0.00 | 0.00 | 0.00 | 75 | 1009.0 |
| 20260503205017 | 28 | 321 | 6.4 | 8.0 | 0.03 | 0.00 | 0.00 | 75 | 1009.0 |
| 20260503204917 | 28 | 321 | 6.4 | 8.0 | 0.03 | 0.00 | 0.00 | 75 | 1009.0 |
| 20260503203016 | 29 | 321 | 6.4 | 8.0 | 0.00 | 0.00 | 0.00 | 75 | 1009.0 |
| 20260503202916 | 29 | 321 | 6.4 | 8.0 | 0.00 | 0.00 | 0.00 | 75 | 1009.0 |
| 20260503201013 | 30 | 321 | 6.4 | 8.0 | 0.00 | 0.00 | 0.00 | 75 | 1010.0 |
| 20260503200913 | 30 | 321 | 6.4 | 8.0 | 0.00 | 0.00 | 0.00 | 75 | 1010.0 |
| 20260503195012 | 30 | 321 | 6.4 | 8.0 | 0.08 | 0.00 | 0.00 | 75 | 1009.0 |
| 20260503194912 | 30 | 321 | 6.4 | 8.0 | 0.08 | 0.00 | 0.00 | 75 | 1009.0 |
| 20260503193011 | 31 | 321 | 6.4 | 9.7 | 0.13 | 0.00 | 0.00 | 75 | 1010.0 |
| 20260503192911 | 31 | 321 | 6.4 | 9.7 | 0.13 | 0.00 | 0.00 | 75 | 1010.0 |
| 20260503191011 | 26 | 286 | 4.8 | 6.4 | 0.05 | 0.00 | 0.00 | 73 | 1010.0 |
| 20260503190910 | 26 | 286 | 4.8 | 6.4 | 0.05 | 0.00 | 0.00 | 73 | 1010.0 |
| 20260503185009 | 26 | 286 | 4.8 | 6.4 | 0.00 | 0.00 | 0.00 | 73 | 1010.0 |
| 20260503184909 | 26 | 286 | 4.8 | 6.4 | 0.00 | 0.00 | 0.00 | 73 | 1010.0 |
| 20260503183008 | 27 | 286 | 4.8 | 6.4 | 0.03 | 0.00 | 0.00 | 73 | 1011.0 |
| 20260503181007 | 27 | 286 | 4.8 | 6.4 | 0.00 | 0.00 | 0.00 | 73 | 1011.0 |
| 20260503180907 | 27 | 286 | 4.8 | 6.4 | 0.00 | 0.00 | 0.00 | 73 | 1011.0 |
| 20260503175010 | 28 | 286 | 4.8 | 6.4 | 0.03 | 0.00 | 0.00 | 73 | 1011.0 |
| 20260503174906 | 28 | 286 | 4.8 | 6.4 | 0.03 | 0.00 | 0.00 | 73 | 1011.0 |
| 20260503173005 | 28 | 286 | 4.8 | 6.4 | 0.00 | 0.00 | 0.00 | 73 | 1012.0 |
| 20260503172905 | 28 | 286 | 4.8 | 6.4 | 0.00 | 0.00 | 0.00 | 73 | 1012.0 |
| 20260503171004 | 29 | 286 | 4.8 | 6.4 | 0.00 | 0.00 | 0.00 | 73 | 1012.0 |
| 20260503170904 | 29 | 286 | 4.8 | 6.4 | 0.00 | 0.00 | 0.00 | 73 | 1012.0 |
| 20260503150959 | 27 | 258 | 1.6 | 4.8 | 0.00 | 0.00 | 0.00 | 78 | 1012.0 |
| 20260503150858 | 27 | 258 | 1.6 | 4.8 | 0.00 | 0.00 | 0.00 | 78 | 1012.0 |
| 20260503130953 | 26 | 193 | 1.6 | 1.6 | 0.00 | 0.00 | 0.00 | 91 | 1012.0 |
| 20260503130853 | 26 | 193 | 1.6 | 1.6 | 0.00 | 0.00 | 0.00 | 91 | 1012.0 |